GW5189 Weather Reports


Display with metric or nautical units.
time (UTC)temp
F
wind
direction
speed
MPH
gust
MPH
rain 1hr
in
rain 24hr
in
rain mn
in
humidity
%
barometer
mb
20260508224746 81 0 1.0 7.0 0.00 0.00 0.00 19 1015.6
20260508224243 81 40 1.0 4.0 0.00 0.00 0.00 19 1015.7
20260508223741 81 44 1.0 7.0 0.00 0.00 0.00 19 1015.7
20260508223238 81 50 0.0 2.0 0.00 0.00 0.00 18 1015.8
20260508222735 80 63 1.0 3.0 0.00 0.00 0.00 19 1015.7
20260508222232 81 99 2.0 2.0 0.00 0.00 0.00 17 1016.0
20260508221729 81 333 1.0 3.0 0.00 0.00 0.00 18 1016.0
20260508221225 81 245 5.0 7.0 0.00 0.00 0.00 18 1016.1
20260508220721 81 74 1.0 3.0 0.00 0.00 0.00 18 1016.1
20260508220218 82 53 1.0 6.0 0.00 0.00 0.00 19 1016.2
20260508215714 82 74 1.0 4.0 0.00 0.00 0.00 18 1016.2
20260508215210 82 85 1.0 4.0 0.00 0.00 0.00 18 1016.3
20260508214708 82 113 2.0 4.0 0.00 0.00 0.00 18 1016.3
20260508214205 81 66 0.0 3.0 0.00 0.00 0.00 19 1016.4
20260508213701 81 45 2.0 3.0 0.00 0.00 0.00 18 1016.3
20260508213158 81 113 2.0 3.0 0.00 0.00 0.00 19 1016.4
20260508212654 80 52 2.0 2.0 0.00 0.00 0.00 19 1016.6
20260508212151 80 311 4.0 8.0 0.00 0.00 0.00 19 1016.8
20260508211651 80 61 2.0 3.0 0.00 0.00 0.00 19 1016.6
20260508211148 79 57 0.0 3.0 0.00 0.00 0.00 19 1016.6
20260508210645 79 54 2.0 3.0 0.00 0.00 0.00 19 1016.6
20260508210143 79 70 2.0 2.0 0.00 0.00 0.00 19 1016.5
20260508205639 79 37 2.0 2.0 0.00 0.00 0.00 19 1016.9
20260508205136 80 32 2.0 3.0 0.00 0.00 0.00 19 1016.8
20260508204632 81 2 3.0 6.0 0.00 0.00 0.00 19 1017.1
20260508204128 80 65 1.0 3.0 0.00 0.00 0.00 19 1017.1
20260508203624 80 177 1.0 3.0 0.00 0.00 0.00 19 1017.1
20260508203120 80 80 1.0 2.0 0.00 0.00 0.00 20 1017.1
20260508202617 80 63 1.0 3.0 0.00 0.00 0.00 19 1017.1
20260508202114 79 337 1.0 2.0 0.00 0.00 0.00 19 1017.1
20260508201611 78 47 2.0 4.0 0.00 0.00 0.00 19 1017.1
20260508201107 80 44 1.0 8.0 0.00 0.00 0.00 19 1017.2
20260508200604 79 60 2.0 4.0 0.00 0.00 0.00 20 1017.3
20260508200100 79 219 1.0 6.0 0.00 0.00 0.00 20 1017.3
20260508195557 79 38 1.0 2.0 0.00 0.00 0.00 21 1017.3
20260508195053 79 95 0.0 3.0 0.00 0.00 0.00 19 1017.3
20260508194550 79 26 2.0 4.0 0.00 0.00 0.00 20 1017.4
20260508194048 79 55 1.0 4.0 0.00 0.00 0.00 20 1017.4
20260508193544 79 69 2.0 6.0 0.00 0.00 0.00 20 1017.4
20260508193041 79 62 1.0 2.0 0.00 0.00 0.00 21 1017.6
20260508192537 79 52 3.0 4.0 0.00 0.00 0.00 20 1017.6
20260508192035 79 108 2.0 4.0 0.00 0.00 0.00 20 1017.4
20260508191531 78 152 2.0 3.0 0.00 0.00 0.00 20 1017.4
20260508191028 78 70 1.0 6.0 0.00 0.00 0.00 20 1017.7
20260508190525 77 34 1.0 3.0 0.00 0.00 0.00 21 1017.7
20260508190021 78 227 4.0 6.0 0.00 0.00 0.00 20 1018.0
20260508185519 79 86 2.0 4.0 0.00 0.00 0.00 20 1017.9
20260508185016 79 43 3.0 4.0 0.00 0.00 0.00 20 1018.1
20260508184514 79 77 1.0 3.0 0.00 0.00 0.00 21 1017.9
20260508184010 79 273 4.0 6.0 0.00 0.00 0.00 21 1018.1
20260508183507 79 295 2.0 3.0 0.00 0.00 0.00 21 1018.1
20260508183002 78 51 1.0 3.0 0.00 0.00 0.00 22 1017.9
20260508182459 78 253 1.0 3.0 0.00 0.00 0.00 22 1017.9
20260508181955 78 142 4.0 6.0 0.00 0.00 0.00 21 1017.8
20260508181451 78 329 4.0 6.0 0.00 0.00 0.00 21 1017.7
20260508180949 78 298 2.0 3.0 0.00 0.00 0.00 21 1017.9
20260508180446 79 290 2.0 6.0 0.00 0.00 0.00 21 1017.9
20260508175942 79 17 2.0 3.0 0.00 0.00 0.00 21 1017.9
20260508175438 78 119 1.0 3.0 0.00 0.00 0.00 23 1018.0
20260508174936 77 85 1.0 2.0 0.00 0.00 0.00 23 1018.1
20260508174434 77 69 1.0 4.0 0.00 0.00 0.00 22 1018.0
20260508173930 76 300 1.0 3.0 0.00 0.00 0.00 23 1017.9
20260508173427 76 73 1.0 7.0 0.00 0.00 0.00 23 1018.1
20260508172923 76 61 3.0 6.0 0.00 0.00 0.00 25 1018.0
20260508172421 77 285 2.0 3.0 0.00 0.00 0.00 24 1018.2
20260508171917 77 72 0.0 1.0 0.00 0.00 0.00 26 1018.1
20260508171413 77 66 1.0 3.0 0.00 0.00 0.00 26 1018.0
20260508170910 76 46 0.0 1.0 0.00 0.00 0.00 26 1017.9
20260508170408 77 308 2.0 6.0 0.00 0.00 0.00 25 1018.1
20260508165904 76 120 1.0 1.0 0.00 0.00 0.00 26 1018.1
20260508165402 76 84 4.0 6.0 0.00 0.00 0.00 27 1018.0
20260508164857 75 89 1.0 3.0 0.00 0.00 0.00 29 1018.0
20260508164355 74 49 0.0 6.0 0.00 0.00 0.00 30 1018.1
20260508163852 74 75 1.0 2.0 0.00 0.00 0.00 28 1018.0
20260508163350 76 126 1.0 2.0 0.00 0.00 0.00 28 1017.9
20260508162845 76 66 0.0 4.0 0.00 0.00 0.00 27 1017.9
20260508162342 75 58 0.0 1.0 0.00 0.00 0.00 28 1017.9
20260508161839 75 70 0.0 0.0 0.00 0.00 0.00 29 1017.8
20260508161337 74 65 0.0 1.0 0.00 0.00 0.00 30 1017.8
20260508160834 74 61 4.0 7.0 0.00 0.00 0.00 29 1017.7
20260508160333 75 41 2.0 3.0 0.00 0.00 0.00 30 1017.9
20260508155829 74 55 1.0 1.0 0.00 0.00 0.00 30 1017.8
20260508155326 73 72 0.0 2.0 0.00 0.00 0.00 30 1017.7
20260508154822 73 61 2.0 2.0 0.00 0.00 0.00 31 1017.9
20260508154321 72 50 0.0 1.0 0.00 0.00 0.00 33 1017.6
20260508153816 73 62 0.0 1.0 0.00 0.00 0.00 31 1017.8
20260508153314 72 61 0.0 2.0 0.00 0.00 0.00 31 1017.8
20260508152810 72 68 1.0 2.0 0.00 0.00 0.00 31 1017.6
20260508152306 71 66 0.0 0.0 0.00 0.00 0.00 33 1017.7
20260508151802 70 31 0.0 1.0 0.00 0.00 0.00 35 1017.4
20260508151259 69 66 0.0 0.0 0.00 0.00 0.00 35 1017.6
20260508150756 69 58 1.0 2.0 0.00 0.00 0.00 35 1017.6
20260508150253 68 87 0.0 1.0 0.00 0.00 0.00 35 1017.6
20260508145749 68 84 0.0 2.0 0.00 0.00 0.00 36 1017.4
20260508145245 68 73 0.0 1.0 0.00 0.00 0.00 36 1017.4
20260508144742 67 66 0.0 1.0 0.00 0.00 0.00 37 1017.3
20260508144240 66 79 1.0 1.0 0.00 0.00 0.00 37 1017.3
20260508143737 66 63 0.0 1.0 0.00 0.00 0.00 37 1017.3
20260508143234 65 66 0.0 1.0 0.00 0.00 0.00 38 1017.3
20260508142730 65 65 0.0 1.0 0.00 0.00 0.00 39 1017.4
20260508142228 64 65 0.0 1.0 0.00 0.00 0.00 40 1017.4
20260508141724 63 65 0.0 0.0 0.00 0.00 0.00 42 1017.4
20260508141222 62 65 0.0 1.0 0.00 0.00 0.00 43 1017.2
20260508140719 62 59 0.0 2.0 0.00 0.00 0.00 43 1017.2
20260508140215 64 0 1.0 1.0 0.00 0.00 0.00 42 1017.1
20260508135712 64 0 0.0 0.0 0.00 0.00 0.00 42 1017.2
20260508135207 62 359 0.0 0.0 0.00 0.00 0.00 42 1016.9
20260508134703 60 359 0.0 0.0 0.00 0.00 0.00 44 1017.1
20260508134201 60 359 0.0 0.0 0.00 0.00 0.00 46 1017.1
20260508133658 58 359 0.0 0.0 0.00 0.00 0.00 48 1016.9
20260508133155 57 359 0.0 0.0 0.00 0.00 0.00 51 1017.0
20260508132653 54 359 0.0 0.0 0.00 0.00 0.00 56 1017.0
20260508132149 53 359 0.0 0.0 0.00 0.00 0.00 55 1016.9
20260508131645 53 359 0.0 1.0 0.00 0.00 0.00 56 1016.8
20260508131142 52 359 0.0 0.0 0.00 0.00 0.00 58 1016.9
20260508130638 51 359 0.0 0.0 0.00 0.00 0.00 60 1016.8
20260508130136 50 359 1.0 1.0 0.00 0.00 0.00 60 1016.5
20260508125631 51 1 0.0 0.0 0.00 0.00 0.00 59 1016.8
20260508125128 50 1 0.0 0.0 0.00 0.00 0.00 59 1016.8
20260508124626 50 0 0.0 1.0 0.00 0.00 0.00 60 1016.4
20260508124123 49 1 0.0 0.0 0.00 0.00 0.00 60 1016.6
20260508123621 50 1 0.0 0.0 0.00 0.00 0.00 59 1016.3
20260508123119 50 1 0.0 1.0 0.00 0.00 0.00 59 1016.2
20260508122615 50 352 1.0 2.0 0.00 0.00 0.00 59 1016.3
20260508122112 50 352 0.0 0.0 0.00 0.00 0.00 58 1016.3
20260508121610 50 352 0.0 0.0 0.00 0.00 0.00 57 1016.2
20260508121108 51 352 0.0 0.0 0.00 0.00 0.00 56 1016.1
20260508120605 51 349 0.0 2.0 0.00 0.00 0.00 56 1016.2
20260508120103 51 302 2.0 2.0 0.00 0.00 0.00 56 1016.2
20260508115600 50 327 1.0 2.0 0.00 0.00 0.00 56 1016.2
20260508115057 50 3 1.0 1.0 0.00 0.00 0.00 57 1015.8
20260508114554 51 4 0.0 0.0 0.00 0.00 0.00 56 1016.0
20260508114050 51 4 0.0 1.0 0.00 0.00 0.00 55 1016.2
20260508113548 51 3 1.0 1.0 0.00 0.00 0.00 56 1016.1
20260508113046 51 359 1.0 1.0 0.00 0.00 0.00 56 1016.1
20260508112542 51 14 0.0 1.0 0.00 0.00 0.00 56 1016.2
20260508112039 51 14 0.0 1.0 0.00 0.00 0.00 56 1016.2
20260508111536 50 15 0.0 1.0 0.00 0.00 0.00 58 1016.1
20260508111032 50 21 0.0 0.0 0.00 0.00 0.00 58 1015.8
20260508110531 50 21 0.0 1.0 0.00 0.00 0.00 58 1016.0
20260508110026 50 21 0.0 1.0 0.00 0.00 0.00 58 1016.0
20260508105521 50 22 0.0 0.0 0.00 0.00 0.00 58 1015.8
20260508105019 51 22 0.0 0.0 0.00 0.00 0.00 57 1016.0
20260508104517 51 22 0.0 0.0 0.00 0.00 0.00 55 1015.8
20260508104013 51 9 0.0 0.0 0.00 0.00 0.00 54 1015.5
20260508103510 52 4 1.0 1.0 0.00 0.00 0.00 54 1015.6
20260508103007 51 341 1.0 2.0 0.00 0.00 0.00 54 1015.7
20260508102505 51 13 1.0 1.0 0.00 0.00 0.00 55 1016.0
20260508102002 51 14 0.0 0.0 0.00 0.00 0.00 55 1015.7
20260508101459 52 14 0.0 1.0 0.00 0.00 0.00 54 1015.7
20260508100956 51 14 0.0 1.0 0.00 0.00 0.00 55 1015.5
20260508100455 50 341 1.0 1.0 0.00 0.00 0.00 56 1015.7
20260508095951 50 23 0.0 1.0 0.00 0.00 0.00 60 1015.6
20260508095449 50 25 0.0 0.0 0.00 0.00 0.00 59 1015.5
20260508094945 50 25 0.0 0.0 0.00 0.00 0.00 58 1015.6
20260508094442 51 25 0.0 0.0 0.00 0.00 0.00 58 1015.6
20260508093939 51 25 0.0 0.0 0.00 0.00 0.00 56 1015.5
20260508093436 51 25 0.0 0.0 0.00 0.00 0.00 55 1015.6
20260508092934 52 25 0.0 0.0 0.00 0.00 0.00 54 1015.7
20260508092432 52 25 0.0 0.0 0.00 0.00 0.00 54 1015.5
20260508091930 52 25 0.0 0.0 0.00 0.00 0.00 54 1015.4
20260508091426 52 24 0.0 0.0 0.00 0.00 0.00 55 1015.6
20260508090923 52 27 0.0 0.0 0.00 0.00 0.00 56 1015.4
20260508090422 52 27 0.0 0.0 0.00 0.00 0.00 55 1015.4
20260508085917 52 27 0.0 0.0 0.00 0.00 0.00 56 1015.7
20260508085414 52 28 0.0 0.0 0.00 0.00 0.00 55 1015.6
20260508084911 52 28 0.0 1.0 0.00 0.00 0.00 55 1015.4
20260508084408 51 28 0.0 1.0 0.00 0.00 0.00 55 1015.6
20260508083906 52 31 0.0 0.0 0.00 0.00 0.00 54 1015.4
20260508083403 52 30 0.0 0.0 0.00 0.00 0.00 54 1015.6
20260508082902 52 41 0.0 0.0 0.00 0.00 0.00 53 1015.6
20260508082400 52 42 0.0 0.0 0.00 0.00 0.00 52 1015.5
20260508081858 54 36 0.0 0.0 0.00 0.00 0.00 49 1015.5
20260508081354 54 36 0.0 0.0 0.00 0.00 0.00 49 1015.6
20260508080851 54 23 0.0 0.0 0.00 0.00 0.00 48 1015.5
20260508080349 54 25 0.0 1.0 0.00 0.00 0.00 48 1015.5
20260508075845 55 355 1.0 1.0 0.00 0.00 0.00 47 1015.3
20260508075342 55 355 1.0 1.0 0.00 0.00 0.00 47 1015.4
20260508074840 56 351 1.0 1.0 0.00 0.00 0.00 47 1015.4
20260508074337 56 8 0.0 1.0 0.00 0.00 0.00 45 1015.4
20260508073834 56 285 1.0 2.0 0.00 0.00 0.00 46 1015.5
20260508073332 56 2 0.0 1.0 0.00 0.00 0.00 46 1015.5
20260508072828 55 356 1.0 1.0 0.00 0.00 0.00 48 1015.4
20260508072325 55 357 1.0 1.0 0.00 0.00 0.00 50 1015.3
20260508071822 56 30 1.0 1.0 0.00 0.00 0.00 49 1015.5
20260508071320 56 33 0.0 0.0 0.00 0.00 0.00 46 1015.3
20260508070817 56 74 0.0 0.0 0.00 0.00 0.00 47 1015.3
20260508070316 56 321 2.0 2.0 0.00 0.00 0.00 47 1015.2
20260508065813 57 2 0.0 0.0 0.00 0.00 0.00 45 1015.2
20260508065311 57 351 0.0 1.0 0.00 0.00 0.00 44 1015.3
20260508064809 57 350 1.0 1.0 0.00 0.00 0.00 44 1015.2
20260508064306 56 359 1.0 1.0 0.00 0.00 0.00 46 1015.2
20260508063803 56 292 2.0 3.0 0.00 0.00 0.00 47 1015.2
20260508063301 56 6 0.0 1.0 0.00 0.00 0.00 49 1015.0
20260508062758 57 6 0.0 1.0 0.00 0.00 0.00 47 1015.3
20260508062256 57 6 0.0 0.0 0.00 0.00 0.00 45 1015.3
20260508061752 57 6 0.0 1.0 0.00 0.00 0.00 45 1015.3
20260508061249 57 6 1.0 1.0 0.00 0.00 0.00 45 1015.0
20260508060746 57 14 0.0 1.0 0.00 0.00 0.00 47 1014.9
20260508060244 57 3 1.0 1.0 0.00 0.00 0.00 46 1015.3
20260508055739 56 14 0.0 1.0 0.00 0.00 0.00 46 1015.0
20260508055237 56 31 0.0 0.0 0.00 0.00 0.00 47 1014.9
20260508054733 57 31 0.0 0.0 0.00 0.00 0.00 46 1015.2
20260508054231 57 30 0.0 0.0 0.00 0.00 0.00 46 1015.0
20260508053728 57 57 0.0 0.0 0.00 0.00 0.00 45 1014.9
20260508053225 58 57 0.0 0.0 0.00 0.00 0.00 44 1014.8
20260508052722 58 57 0.0 0.0 0.00 0.00 0.00 43 1014.8
20260508052219 58 58 0.0 0.0 0.00 0.00 0.00 42 1014.7
20260508051715 59 58 0.0 0.0 0.00 0.00 0.00 42 1014.8
20260508051211 60 41 0.0 1.0 0.00 0.00 0.00 40 1014.6
20260508050708 61 17 0.0 1.0 0.00 0.00 0.00 39 1014.8
20260508050206 61 279 2.0 2.0 0.00 0.00 0.00 38 1014.7
20260508045705 61 307 1.0 2.0 0.00 0.00 0.00 39 1014.7
20260508045204 61 338 1.0 1.0 0.00 0.00 0.00 39 1014.7
20260508044701 61 334 1.0 1.0 0.00 0.00 0.00 38 1014.6
20260508044157 62 292 2.0 3.0 0.00 0.00 0.00 37 1014.8
20260508043653 62 293 2.0 3.0 0.00 0.00 0.00 36 1014.7
20260508043152 62 308 1.0 1.0 0.00 0.00 0.00 36 1014.7
20260508042648 62 249 2.0 2.0 0.00 0.00 0.00 36 1014.6
20260508042145 62 237 2.0 3.0 0.00 0.00 0.00 36 1014.7
20260508041642 62 283 1.0 3.0 0.00 0.00 0.00 37 1014.8
20260508041138 62 317 1.0 2.0 0.00 0.00 0.00 37 1014.6
20260508040635 62 283 2.0 3.0 0.00 0.00 0.00 37 1014.6
20260508040133 62 263 2.0 3.0 0.00 0.00 0.00 38 1014.5
20260508035629 62 282 2.0 3.0 0.00 0.00 0.00 38 1014.5
20260508035127 62 261 2.0 3.0 0.00 0.00 0.00 38 1014.4
20260508034624 63 296 2.0 3.0 0.00 0.00 0.00 38 1014.4
20260508034121 63 258 2.0 2.0 0.00 0.00 0.00 38 1014.6
20260508033618 64 259 2.0 2.0 0.00 0.00 0.00 37 1014.4
20260508033116 64 3 1.0 1.0 0.00 0.00 0.00 36 1014.4
20260508032612 64 51 0.0 1.0 0.00 0.00 0.00 35 1014.2
20260508032110 64 352 1.0 1.0 0.00 0.00 0.00 35 1014.5
20260508031607 65 353 1.0 1.0 0.00 0.00 0.00 34 1014.2
20260508031103 65 359 1.0 1.0 0.00 0.00 0.00 33 1014.1
20260508030559 65 6 1.0 1.0 0.00 0.00 0.00 33 1014.0
20260508030058 65 26 0.0 0.0 0.00 0.00 0.00 35 1014.1
20260508025553 65 28 0.0 0.0 0.00 0.00 0.00 35 1014.1
20260508025051 66 28 0.0 0.0 0.00 0.00 0.00 34 1014.1
20260508024546 66 42 0.0 0.0 0.00 0.00 0.00 33 1014.0
20260508024044 67 42 0.0 0.0 0.00 0.00 0.00 33 1014.1
20260508023540 68 42 0.0 0.0 0.00 0.00 0.00 32 1014.1
20260508023038 68 42 0.0 0.0 0.00 0.00 0.00 30 1014.1
20260508022533 69 42 0.0 0.0 0.00 0.00 0.00 29 1014.0
20260508022030 69 42 0.0 0.0 0.00 0.00 0.00 28 1014.1
20260508021526 70 42 0.0 0.0 0.00 0.00 0.00 28 1014.1
20260508021022 71 42 0.0 0.0 0.00 0.00 0.00 27 1013.9
20260508020520 72 61 0.0 0.0 0.00 0.00 0.00 26 1014.1
20260508020018 73 62 0.0 0.0 0.00 0.00 0.00 25 1013.7
20260508015515 73 51 0.0 1.0 0.00 0.00 0.00 24 1013.9
20260508015012 74 62 0.0 0.0 0.00 0.00 0.00 24 1013.9
20260508014508 75 68 2.0 2.0 0.00 0.00 0.00 23 1013.8
20260508014004 76 71 0.0 1.0 0.00 0.00 0.00 23 1013.8
20260508013500 76 63 2.0 2.0 0.00 0.00 0.00 23 1013.7
20260508012958 76 67 0.0 1.0 0.00 0.00 0.00 23 1013.8
20260508012455 76 65 0.0 1.0 0.00 0.00 0.00 23 1014.0
20260508011952 76 63 1.0 2.0 0.00 0.00 0.00 23 1013.9
20260508011450 76 74 0.0 2.0 0.00 0.00 0.00 22 1013.9
20260508010947 76 83 1.0 1.0 0.00 0.00 0.00 23 1014.0
20260508010444 76 61 3.0 3.0 0.00 0.00 0.00 22 1013.8
20260508005942 77 49 0.0 1.0 0.00 0.00 0.00 22 1013.7
20260508005438 76 58 1.0 3.0 0.00 0.00 0.00 22 1014.0
20260508004935 75 58 2.0 3.0 0.00 0.00 0.00 23 1014.0
20260508004431 74 48 1.0 1.0 0.00 0.00 0.00 23 1014.5
20260508003927 74 69 2.0 4.0 0.00 0.00 0.00 23 1014.1
20260508003424 74 54 0.0 1.0 0.00 0.00 0.00 23 1014.2
20260508002922 74 52 1.0 2.0 0.00 0.00 0.00 23 1014.1
20260508002418 74 69 0.0 2.0 0.00 0.00 0.00 23 1014.2
20260508001914 74 69 0.0 2.0 0.00 0.00 0.00 23 1014.1
20260508001410 75 63 2.0 4.0 0.00 0.00 0.00 23 1014.4
20260508000907 75 177 2.0 3.0 0.00 0.00 0.00 22 1014.1
20260508000405 75 96 1.0 2.0 0.00 0.00 0.00 22 1014.4
20260507235900 75 75 0.0 1.0 0.00 0.00 0.00 23 1014.2
20260507235357 76 65 0.0 2.0 0.00 0.00 0.00 22 1014.5
20260507234854 76 84 0.0 1.0 0.00 0.00 0.00 22 1014.7
20260507234351 76 94 1.0 3.0 0.00 0.00 0.00 22 1014.6
20260507233848 77 66 2.0 4.0 0.00 0.00 0.00 21 1014.5
20260507233345 77 82 0.0 3.0 0.00 0.00 0.00 22 1014.6
20260507232843 78 69 1.0 3.0 0.00 0.00 0.00 21 1014.6
20260507232339 78 65 0.0 1.0 0.00 0.00 0.00 21 1014.7
20260507231837 79 82 1.0 4.0 0.00 0.00 0.00 21 1014.7
20260507231333 78 52 0.0 0.0 0.00 0.00 0.00 21 1014.9
20260507230829 79 15 1.0 3.0 0.00 0.00 0.00 20 1014.8
20260507230327 78 49 1.0 1.0 0.00 0.00 0.00 21 1015.2
20260507225826 78 51 3.0 4.0 0.00 0.00 0.00 21 1015.3
20260507225323 78 59 0.0 4.0 0.00 0.00 0.00 23 1014.9